Weather History for Aurora, NE

Change the Weather History Date:

Wednesday, February 13, 2013

  Actual Average Record
Temperature  
Mean Temperature 40 °F -  
Max Temperature 54 °F 38 °F 68 °F (1967)
Min Temperature 27 °F 17 °F -4 °F (1986)
Degree Days  
Heating Degree Days 24    
Moisture  
Dew Point 26 °F    
Average Humidity 65    
Maximum Humidity 86    
Minimum Humidity 32    
Precipitation  
Precipitation 0.00 in - - ()
Sea Level Pressure  
Sea Level Pressure 29.83 in    
Wind  
Wind Speed 9 mph (West)    
Max Wind Speed 20 mph    
Max Gust Speed 23 mph    
Visibility 10 miles    
Events      
Averages and records for this station are not official NWS values.
T = Trace of Precipitation, MM = Missing Value Source: NWS Daily Summary

Daily Weather History Graph

Daily Weather History Graph

Search for Another Location

Airport:

Trip Planner

Search our weather history database for the weather conditions in past years. The results will help you decide how hot, cold, wet, or windy it might be!

Date:

Astronomy

Feb. 13, 2013 Rise Set
Actual Time 7:28 AM CST 6:04 PM CST
Civil Twilight 7:00 AM CST 6:32 PM CST
Nautical Twilight 6:27 AM CST 7:05 PM CST
Astronomical Twilight 5:56 AM CST 7:36 PM CST
Moon 8:56 AM CST (2/13) 10:10 PM CST (2/13)
Length of Visible Light 11h 32m
Length of Day
10h 36m
Waxing Crescent, 14% of the Moon is Illuminated
Feb 13
Waxing Crescent
Feb 17
First Quarter
Feb 25
Full
Mar 4
Last Quarter
Mar 11
New

Hourly Weather History & Observations

Time (CST) Temp. Windchill Dew Point Humidity Pressure Visibility Wind Dir Wind Speed Gust Speed Precip Events Conditions
12:15 AM 27.0 °F 18.7 °F 22.5 °F 83% 29.91 in 10.0 mi West 8.1 mph - N/A   Clear
12:35 AM 27.1 °F 18.9 °F 23.0 °F 84% 29.91 in 10.0 mi West 8.1 mph - N/A   Clear
12:55 AM 28.9 °F 21.1 °F 23.5 °F 80% 29.91 in 10.0 mi West 8.1 mph - N/A   Clear
1:15 AM 28.0 °F 20.8 °F 23.0 °F 81% 29.90 in 10.0 mi West 6.9 mph - N/A   Clear
1:35 AM 27.5 °F 20.2 °F 22.8 °F 83% 29.90 in 10.0 mi West 6.9 mph - N/A   Clear
1:55 AM 27.5 °F 22.2 °F 22.8 °F 83% 29.90 in 10.0 mi WNW 4.6 mph - N/A   Clear
2:15 AM 27.9 °F 20.6 °F 23.2 °F 83% 29.90 in 10.0 mi West 6.9 mph - N/A   Clear
2:35 AM 27.7 °F 20.4 °F 22.8 °F 82% 29.89 in 10.0 mi West 6.9 mph - N/A   Clear
2:55 AM 27.3 °F 19.1 °F 22.8 °F 83% 29.89 in 10.0 mi West 8.1 mph - N/A   Clear
3:15 AM 27.3 °F 22.0 °F 23.0 °F 84% 29.89 in 10.0 mi West 4.6 mph - N/A   Clear
3:35 AM 27.0 °F 19.5 °F 22.8 °F 84% 29.89 in 10.0 mi West 6.9 mph - N/A   Clear
3:55 AM 27.1 °F 21.8 °F 22.6 °F 83% 29.88 in 10.0 mi West 4.6 mph - N/A   Clear
4:15 AM 27.3 °F 23.4 °F 23.0 °F 84% 29.87 in 10.0 mi WSW 3.5 mph - N/A   Clear
4:35 AM 27.1 °F 18.9 °F 23.0 °F 84% 29.86 in 10.0 mi West 8.1 mph - N/A   Clear
4:55 AM 27.5 °F 21.1 °F 23.9 °F 86% 29.86 in 10.0 mi WSW 5.8 mph - N/A   Clear
5:15 AM 27.9 °F 21.5 °F 24.1 °F 86% 29.86 in 10.0 mi WSW 5.8 mph - N/A   Clear
5:35 AM 28.4 °F 21.2 °F 24.4 °F 85% 29.86 in 10.0 mi West 6.9 mph - N/A   Clear
6:15 AM 27.7 °F 22.4 °F 24.1 °F 86% 29.86 in 10.0 mi West 4.6 mph - N/A   Clear
6:35 AM 28.6 °F 22.4 °F 24.6 °F 85% 29.86 in 10.0 mi West 5.8 mph - N/A   Clear
6:55 AM 29.7 °F 24.7 °F 25.0 °F 83% 29.86 in 10.0 mi WSW 4.6 mph - N/A   Clear
7:15 AM 29.5 °F 22.5 °F 25.0 °F 83% 29.86 in 10.0 mi West 6.9 mph - N/A   Clear
7:35 AM 28.9 °F 21.9 °F 24.8 °F 84% 29.86 in 10.0 mi West 6.9 mph - N/A   Clear
7:55 AM 28.4 °F 23.3 °F 24.3 °F 84% 29.86 in 10.0 mi WSW 4.6 mph - N/A   Clear
8:15 AM 28.8 °F 22.6 °F 25.0 °F 86% 29.86 in 10.0 mi West 5.8 mph - N/A   Clear
8:35 AM 30.9 °F 23.5 °F 25.9 °F 82% 29.86 in 10.0 mi West 8.1 mph - N/A   Clear
8:55 AM 32.2 °F 25.0 °F 26.2 °F 79% 29.86 in 10.0 mi West 8.1 mph - N/A   Clear
9:15 AM 34.2 °F 27.5 °F 26.8 °F 74% 29.86 in 10.0 mi West 8.1 mph - N/A   Clear
9:35 AM 36.3 °F 29.5 °F 26.8 °F 68% 29.85 in 10.0 mi WNW 9.2 mph - N/A   Clear
9:55 AM 37.9 °F 30.9 °F 26.1 °F 62% 29.85 in 10.0 mi WNW 10.4 mph - N/A   Clear
10:15 AM 39.4 °F 32.7 °F 26.4 °F 60% 29.85 in 10.0 mi West 10.4 mph - N/A   Clear
10:35 AM 41.0 °F 34.7 °F 26.6 °F 57% 29.85 in 10.0 mi West 10.4 mph - N/A   Clear
10:55 AM 42.3 °F 35.9 °F 26.6 °F 54% 29.85 in 10.0 mi West 11.5 mph - N/A   Clear
11:15 AM 43.5 °F 37.5 °F 26.2 °F 51% 29.84 in 10.0 mi West 11.5 mph - N/A   Clear
11:35 AM 45.5 °F 40.8 °F 26.4 °F 47% 29.83 in 10.0 mi West 9.2 mph - N/A   Clear
11:55 AM 46.8 °F - 26.2 °F 45% 29.83 in 10.0 mi SW 11.5 mph - N/A   Clear
12:15 PM 48.4 °F - 26.1 °F 42% 29.82 in 10.0 mi West 12.7 mph - N/A   Clear
12:35 PM 49.6 °F - 25.7 °F 39% 29.81 in 10.0 mi WSW 12.7 mph - N/A   Clear
12:55 PM 50.0 °F - 25.0 °F 38% 29.81 in 10.0 mi WSW 15.0 mph - N/A   Clear
1:15 PM 50.2 °F - 25.3 °F 38% 29.80 in 10.0 mi West 13.8 mph 20.7 mph N/A   Clear
1:35 PM 51.4 °F - 24.6 °F 35% 29.80 in 10.0 mi West 12.7 mph - N/A   Clear
1:55 PM 52.0 °F - 24.8 °F 35% 29.79 in 10.0 mi West 15.0 mph - N/A   Clear
2:15 PM 52.9 °F - 24.8 °F 34% 29.78 in 10.0 mi WSW 11.5 mph - N/A   Clear
2:35 PM 53.4 °F - 24.6 °F 33% 29.77 in 10.0 mi West 13.8 mph 21.9 mph N/A   Clear
2:55 PM 53.8 °F - 25.0 °F 33% 29.76 in 10.0 mi West 19.6 mph 23.0 mph N/A   Clear
3:15 PM 54.0 °F - 25.2 °F 33% 29.75 in 10.0 mi West 17.3 mph 23.0 mph N/A   Clear
3:35 PM 54.9 °F - 25.7 °F 32% 29.75 in 10.0 mi WNW 15.0 mph 21.9 mph N/A   Clear
3:55 PM 54.9 °F - 25.7 °F 32% 29.75 in 10.0 mi WNW 18.4 mph 23.0 mph N/A   Clear
4:15 PM 54.5 °F - 25.5 °F 33% 29.75 in 10.0 mi WNW 15.0 mph 21.9 mph N/A   Clear
4:35 PM 53.2 °F - 25.3 °F 34% 29.75 in 10.0 mi WNW 15.0 mph 21.9 mph N/A   Mostly Cloudy
4:55 PM 52.0 °F - 27.3 °F 39% 29.76 in 10.0 mi WNW 10.4 mph - N/A   Overcast
5:15 PM 51.4 °F - 27.3 °F 39% 29.76 in 10.0 mi WNW 11.5 mph - N/A   Overcast
5:35 PM 49.8 °F - 27.7 °F 42% 29.77 in 10.0 mi NW 10.4 mph - N/A   Overcast
5:55 PM 47.1 °F - 28.4 °F 48% 29.77 in 10.0 mi NW 10.4 mph - N/A   Scattered Clouds
6:15 PM 45.0 °F 40.1 °F 28.2 °F 52% 29.78 in 10.0 mi WNW 9.2 mph - N/A   Clear
6:35 PM 40.3 °F 35.5 °F 27.0 °F 59% 29.78 in 10.0 mi WNW 6.9 mph - N/A   Clear
6:55 PM 37.9 °F 31.5 °F 26.4 °F 63% 29.79 in 10.0 mi West 9.2 mph - N/A   Clear
7:15 PM 35.8 °F 29.4 °F 26.1 °F 68% 29.79 in 10.0 mi West 8.1 mph - N/A   Clear
7:35 PM 34.3 °F 26.5 °F 26.4 °F 73% 29.79 in 10.0 mi West 10.4 mph - N/A   Clear
7:55 PM 34.9 °F 27.7 °F 26.6 °F 72% 29.79 in 10.0 mi West 9.2 mph - N/A   Clear
8:15 PM 33.8 °F 26.4 °F 26.2 °F 74% 29.79 in 10.0 mi West 9.2 mph - N/A   Clear
8:35 PM 35.4 °F 28.4 °F 27.9 °F 74% 29.79 in 10.0 mi West 9.2 mph - N/A   Clear
8:55 PM 35.8 °F 28.8 °F 27.9 °F 73% 29.79 in 10.0 mi West 9.2 mph - N/A   Clear
9:15 PM 34.3 °F 27.0 °F 27.5 °F 76% 29.79 in 10.0 mi West 9.2 mph - N/A   Clear
9:35 PM 34.7 °F 27.5 °F 28.2 °F 77% 29.79 in 10.0 mi West 9.2 mph - N/A   Clear
9:55 PM 37.8 °F 31.3 °F 28.9 °F 71% 29.80 in 10.0 mi West 9.2 mph - N/A   Clear
10:15 PM 36.5 °F 28.2 °F 28.4 °F 72% 29.81 in 10.0 mi West 12.7 mph - N/A   Scattered Clouds
10:35 PM 34.2 °F 25.7 °F 27.9 °F 78% 29.82 in 10.0 mi West 11.5 mph - N/A   Scattered Clouds
10:55 PM 39.2 °F 30.8 °F 30.0 °F 70% 29.83 in 10.0 mi WNW 15.0 mph - N/A   Scattered Clouds
11:15 PM 38.8 °F 31.2 °F 29.8 °F 70% 29.84 in 10.0 mi WNW 12.7 mph - N/A   Scattered Clouds
11:35 PM 38.7 °F 31.4 °F 30.2 °F 72% 29.84 in 10.0 mi WNW 11.5 mph - N/A   Overcast
11:55 PM 39.4 °F 31.8 °F 30.6 °F 71% 29.86 in 10.0 mi NW 12.7 mph - N/A   Mostly Cloudy